GFSSE_sfc_thetae_114.txt.gz
Theta_e
340 350 361 362 361 360 360 359 360 359 358 357 357 354 352 354 352 349 349 352 352 354 354 353 350 348 348 350 351 352 353 354 354 354 355 356 357 357 357 359 356 354 358
337 353 362 363 361 360 360 359 358 357 357 356 355 352 351 350 353 349 349 351 352 353 352 350 348 348 348 348 349 350 351 352 352 354 356 355 355 357 356 356 358 354 357
336 355 360 362 362 360 360 359 358 357 356 356 354 352 350 348 352 350 349 351 352 352 350 347 347 347 347 347 348 349 349 350 350 354 355 350 353 356 356 355 356 357 355
339 353 357 362 361 361 360 358 358 357 356 354 352 350 348 346 348 352 350 351 350 351 348 347 345 345 346 346 347 348 348 347 348 353 348 348 350 354 355 355 355 355 355
346 351 353 361 360 360 358 358 357 356 355 353 350 348 346 345 347 352 351 350 350 350 348 346 345 343 343 344 345 346 347 347 349 346 348 350 351 352 354 354 353 354 354
352 354 359 360 360 358 358 357 357 355 353 350 348 346 345 345 347 351 350 348 351 349 347 345 343 342 341 341 342 344 344 346 350 345 344 348 349 352 353 352 352 352 352
347 349 356 359 358 358 356 356 355 354 352 348 346 345 345 347 351 351 349 347 350 348 346 344 342 340 339 339 339 340 342 346 345 343 343 345 347 351 351 351 351 351 351
344 346 351 357 358 357 357 356 354 351 349 347 346 346 347 351 351 350 349 349 349 348 345 341 339 338 338 337 337 339 338 344 342 340 341 343 348 348 349 349 350 350 349
345 350 350 353 354 356 355 356 353 349 347 347 346 348 352 351 350 349 347 345 348 345 342 338 336 336 336 337 337 337 337 342 336 337 336 341 346 346 347 346 347 348 349
345 348 348 351 351 352 351 354 352 349 348 350 350 351 350 350 347 346 346 343 345 344 339 335 333 334 335 335 336 335 337 340 334 335 336 337 340 341 343 344 344 345 346
345 347 347 348 349 348 347 348 348 349 350 350 349 350 347 345 342 344 345 344 343 341 336 334 333 334 334 335 334 332 339 332 332 332 334 339 337 338 338 338 339 341 343
342 344 345 345 345 345 341 342 340 341 346 347 345 343 342 341 341 337 340 341 341 337 333 334 334 332 333 327 329 332 333 331 331 332 333 337 335 335 335 334 335 335 336
341 343 344 344 344 340 336 337 338 340 350 345 344 341 339 338 334 332 332 333 336 334 327 326 326 325 328 328 328 331 331 329 330 331 333 335 332 333 333 332 332 332 332
340 342 342 343 342 336 335 337 341 347 347 343 342 340 337 334 332 329 328 329 331 326 316 316 319 324 326 326 327 327 326 327 327 327 329 333 331 331 332 331 330 329 329
337 340 342 343 341 335 335 339 346 340 342 342 342 338 335 332 329 328 326 324 323 316 315 315 316 317 318 320 323 323 321 322 323 323 324 332 330 330 330 330 329 329 328
337 338 343 341 340 334 336 343 344 341 341 342 340 335 332 329 326 324 322 319 316 315 315 315 315 315 315 315 316 317 318 319 320 321 322 325 329 328 327 327 327 327 326
337 339 341 341 339 334 336 343 344 339 339 340 336 332 329 327 324 321 318 315 314 315 314 315 314 315 315 315 314 315 315 315 316 318 320 320 321 326 324 323 324 324 324
338 338 339 339 338 334 337 342 342 340 339 339 332 329 326 324 321 317 315 314 314 314 314 314 314 314 314 314 314 314 314 314 314 315 315 316 317 318 319 321 321 321 321
339 337 337 339 337 335 339 343 343 341 340 337 331 328 324 320 317 315 314 314 314 314 314 314 314 314 313 313 313 314 315 315 314 313 314 315 315 316 315 314 316 318 320
340 339 340 339 338 336 342 340 339 340 338 334 330 329 320 318 316 315 315 314 314 314 314 315 314 315 314 313 311 312 314 315 315 315 313 313 314 315 316 316 316 314 316
339 338 338 338 337 337 335 330 331 332 333 332 330 329 319 317 313 311 314 313 315 315 315 315 315 314 313 314 312 312 312 314 313 313 313 313 313 314 314 314 314 314 312
336 337 338 338 337 337 337 332 333 329 331 331 330 329 320 315 312 312 313 313 315 315 316 315 315 313 314 314 311 311 307 308 310 311 312 311 311 311 310 310 311 311 312
333 335 336 338 338 338 336 328 325 323 323 321 317 316 315 313 311 307 309 311 314 315 314 315 315 315 311 312 312 310 305 303 308 310 310 310 310 310 310 310 310 310 310
331 335 337 336 337 338 335 330 328 326 320 319 311 310 311 311 311 311 310 308 309 311 311 313 313 314 313 310 311 311 311 311 306 305 309 309 309 308 309 309 308 308 308
332 333 334 333 334 333 330 327 327 321 316 314 310 310 311 312 314 313 312 311 308 309 310 311 311 312 314 312 311 311 310 310 310 307 305 307 307 307 308 308 308 307 307
332 332 333 333 333 332 331 329 320 315 311 309 309 309 310 312 313 313 313 311 309 310 310 310 311 312 312 312 312 312 311 309 308 307 305 305 307 308 308 308 307 307 307

GFSSE_sfc_thetae_117.txt.gz
Theta_e
342 348 360 364 361 360 359 359 359 358 359 358 356 356 355 351 349 350 352 354 354 353 351 349 349 349 351 352 353 354 354 355 355 356 356 356 357 357 357 359 357 353 359
340 353 363 363 362 360 359 359 360 358 358 357 354 353 354 352 349 350 352 353 353 351 349 348 348 348 349 350 352 352 352 354 356 357 357 355 355 357 356 357 357 354 356
338 353 359 363 362 361 361 360 359 358 357 356 353 351 350 354 350 349 351 353 352 349 348 347 347 347 347 349 349 350 350 351 357 355 355 351 352 357 356 356 356 357 356
343 353 356 363 362 361 359 358 358 357 356 355 352 350 348 351 351 350 351 352 351 349 347 346 346 346 347 348 348 348 348 349 355 354 349 349 350 355 356 355 355 355 355
347 352 357 362 362 360 359 358 357 356 355 353 351 349 347 347 352 351 351 352 350 348 346 345 344 344 345 347 347 347 349 352 354 348 349 351 351 352 354 354 353 353 354
347 350 359 361 360 360 359 357 357 355 354 352 349 347 346 345 351 351 350 352 349 347 345 343 342 342 342 344 345 346 349 351 347 345 347 350 350 352 353 352 352 353 353
349 351 356 360 358 359 357 357 356 355 352 350 348 346 345 347 351 350 348 351 349 346 345 342 341 340 340 341 343 343 347 349 341 341 344 347 348 351 352 352 351 351 351
347 351 354 358 359 358 357 356 355 353 351 348 346 345 347 351 351 350 349 349 348 345 342 341 340 339 338 339 340 340 342 347 339 340 342 345 348 349 350 351 350 350 350
345 345 350 351 354 357 356 356 355 352 349 347 346 347 351 351 350 349 349 348 347 343 340 338 338 338 337 338 338 338 343 344 334 339 337 340 346 346 348 349 348 348 348
342 343 345 348 351 351 351 353 354 352 348 349 349 351 351 349 349 348 348 347 345 341 337 335 336 336 336 336 336 336 341 342 334 335 334 336 341 342 344 345 345 345 346
340 345 347 346 346 346 347 350 351 351 350 350 350 350 348 345 343 344 345 346 341 338 336 334 335 335 335 333 331 333 338 331 332 332 332 339 338 339 339 339 340 341 343
337 340 346 346 345 345 344 347 344 343 341 344 344 343 344 341 341 341 341 345 339 336 334 335 334 334 333 327 330 333 329 331 330 330 331 337 335 336 336 335 335 335 336
340 341 344 346 345 343 340 341 336 335 339 348 343 340 338 338 336 336 334 338 334 334 328 327 329 327 326 327 330 328 328 329 329 328 332 335 333 334 334 333 332 332 333
338 340 343 344 345 340 339 335 333 334 345 349 342 339 337 334 331 331 330 333 331 324 319 320 323 326 326 326 326 325 326 327 325 326 330 335 333 333 332 332 331 331 330
337 340 342 342 339 338 335 333 334 345 348 344 341 338 336 332 329 328 327 329 327 318 316 317 321 322 323 324 323 321 323 323 323 324 326 334 333 331 331 330 330 329 329
337 339 340 340 341 336 333 333 340 345 346 343 341 339 333 330 328 327 326 322 320 315 316 316 316 317 317 318 318 319 319 320 321 322 323 326 331 330 328 328 328 328 327
338 339 339 340 339 336 332 335 344 344 342 343 341 337 330 328 326 325 322 317 315 315 315 316 315 316 315 315 315 316 316 317 319 320 320 321 322 327 326 325 325 325 325
338 339 339 341 337 336 332 342 343 343 341 341 338 332 328 326 324 322 319 315 315 315 316 315 315 315 315 314 314 314 314 315 315 316 318 318 320 318 321 323 323 323 323
340 339 338 340 336 336 334 342 343 341 340 339 336 328 326 324 321 318 316 316 315 316 315 315 315 314 313 314 314 314 314 314 314 314 314 316 316 319 316 316 319 320 319
342 337 338 339 338 337 336 341 340 342 340 339 331 327 324 321 318 316 317 316 315 316 316 317 314 315 314 313 310 312 313 315 315 314 314 314 315 317 317 318 318 315 317
338 335 331 335 338 336 336 339 337 335 337 335 331 327 322 318 316 317 317 315 317 316 316 317 315 314 314 314 312 312 312 313 313 314 314 313 315 314 315 316 316 315 313
336 335 336 337 337 336 339 337 335 334 336 333 332 328 321 317 315 315 315 315 313 317 317 316 318 315 315 315 311 312 307 309 311 312 313 313 312 314 312 312 311 312 315
334 335 336 337 338 337 339 335 329 325 325 328 328 327 319 314 313 313 314 313 315 318 318 319 318 320 315 316 313 312 307 305 309 311 310 311 311 312 312 311 310 310 310
329 338 338 336 336 337 336 330 326 323 320 323 319 317 316 315 312 310 310 309 309 310 312 316 315 317 316 312 313 311 311 311 307 307 310 310 311 310 311 312 310 309 309
327 332 338 335 333 333 332 330 330 325 322 318 313 312 311 313 313 311 310 309 308 309 308 309 310 312 314 313 314 314 312 311 309 306 305 307 310 310 310 311 309 310 310
328 334 335 331 330 329 329 330 323 317 314 312 312 311 312 311 313 313 312 311 311 310 309 309 310 311 312 312 314 314 313 310 308 308 306 307 307 310 309 309 309 310 311

GFSSE_sfc_thetae_120.txt.gz
Theta_e
345 353 364 362 362 361 360 360 360 359 359 359 357 354 351 350 353 353 355 354 353 350 349 349 350 351 354 355 355 356 355 355 355 356 355 356 357 357 356 358 356 348 356
343 353 364 363 363 361 360 359 359 359 358 357 356 354 351 349 351 352 353 353 350 349 349 348 348 350 350 352 353 353 355 355 356 356 355 355 354 357 356 357 357 353 357
342 354 360 364 363 362 361 361 359 358 357 355 353 353 352 350 350 353 353 351 349 348 347 347 348 348 349 350 350 352 354 357 355 355 355 348 349 356 356 356 356 356 356
347 355 356 364 363 363 362 361 358 358 356 354 352 350 354 351 350 352 353 351 349 348 347 347 347 347 348 348 350 352 353 356 355 353 347 347 349 355 355 355 355 354 354
346 352 357 363 362 361 360 359 357 357 356 353 351 348 349 352 351 352 353 350 347 346 345 345 345 347 348 348 350 353 354 355 353 348 345 346 346 352 352 351 351 353 355
346 351 360 362 362 360 359 358 357 356 354 352 350 348 346 351 352 352 351 350 347 345 344 343 343 344 346 347 351 351 352 348 347 342 342 346 345 352 353 352 353 354 354
347 354 357 362 360 359 358 357 357 356 353 351 348 346 345 349 352 351 350 349 347 345 343 341 340 342 344 344 344 345 350 349 338 339 340 342 345 351 352 352 351 351 352
349 352 354 360 360 358 357 357 356 354 352 349 347 345 346 352 351 350 350 349 346 343 342 340 339 339 341 342 342 345 349 345 338 336 338 340 348 350 351 351 350 350 350
348 350 350 352 355 358 357 356 355 353 350 348 346 347 352 352 350 350 349 347 344 341 340 339 338 337 337 340 341 346 346 342 331 332 335 337 347 347 348 348 348 349 349
345 347 346 349 349 350 350 354 354 354 350 347 349 353 352 350 350 349 348 345 342 339 338 337 337 336 335 337 338 338 343 338 329 330 332 335 342 344 344 344 345 346 347
336 341 342 345 346 347 347 349 351 353 351 350 350 352 349 342 341 342 347 344 340 338 337 336 335 334 334 332 333 335 337 327 328 328 329 338 338 339 339 338 339 340 341
334 339 345 345 345 346 347 345 343 343 340 338 343 342 341 337 338 340 343 341 338 336 335 333 333 334 334 324 325 334 326 325 325 326 329 337 335 336 336 335 335 335 336
337 341 344 343 343 343 344 343 341 338 334 339 340 340 339 336 335 335 336 330 327 332 324 328 328 326 318 321 322 322 324 323 323 324 331 337 334 334 334 334 333 333 333
339 340 343 343 342 342 343 339 332 332 335 339 340 337 333 331 328 328 328 329 324 320 317 317 319 319 319 321 318 319 321 321 322 322 330 336 333 333 333 332 332 331 331
335 337 340 343 342 342 333 329 326 333 340 340 341 336 332 326 323 325 324 326 320 311 309 313 316 316 315 315 314 316 317 318 319 320 323 334 334 331 331 331 331 330 329
334 334 339 340 340 338 329 326 336 342 342 339 340 334 330 326 322 320 320 319 310 309 310 311 311 310 311 311 311 312 313 317 318 317 318 323 333 331 329 329 328 328 328
335 339 339 338 339 334 329 327 340 340 340 339 338 334 326 324 321 319 316 312 309 308 308 308 308 308 308 309 307 308 310 312 315 316 316 315 318 328 327 326 326 326 325
334 335 335 341 338 334 327 338 340 339 338 339 337 331 324 323 319 317 313 310 309 309 309 308 308 308 307 307 305 306 307 309 309 311 313 313 313 316 321 326 324 323 323
333 335 336 337 337 334 329 338 339 338 338 338 334 325 321 320 318 314 311 309 309 309 309 308 307 307 306 306 307 306 306 306 307 310 308 309 310 310 310 320 321 321 321
334 337 337 337 338 334 338 339 337 336 337 337 328 323 319 317 314 311 310 308 310 309 308 308 307 307 307 306 308 307 306 307 306 306 307 310 309 309 307 309 310 313 319
339 336 334 332 335 333 334 334 334 333 332 335 326 321 317 314 311 310 311 309 310 309 309 307 307 305 305 305 304 304 304 305 305 306 306 306 308 309 308 308 309 307 310
332 332 329 331 329 326 333 334 333 334 333 331 325 319 314 311 310 312 311 310 311 309 309 308 310 306 306 306 303 302 299 301 302 305 305 306 305 307 306 307 305 306 306
325 329 324 326 327 325 333 333 327 327 326 325 321 314 311 310 311 310 310 310 310 311 310 310 311 309 307 308 307 305 300 298 299 303 302 304 303 304 304 304 303 304 303
322 331 326 328 326 329 335 329 328 326 322 321 315 314 313 311 310 309 308 309 309 310 309 309 311 311 310 307 307 309 305 304 300 300 303 303 304 304 303 303 302 302 302
318 331 332 329 326 329 328 330 326 323 318 316 316 313 311 311 311 310 308 308 308 308 307 308 307 307 309 308 308 306 305 305 304 300 298 301 302 302 302 302 302 302 302
329 332 326 328 325 325 328 323 321 317 315 313 312 312 310 311 312 312 311 310 309 309 309 308 308 307 306 307 307 308 306 304 303 301 299 299 300 302 302 303 302 303 303

GFSSE_sfc_thetae_123.txt.gz
Theta_e
344 355 363 364 363 362 361 361 360 360 359 357 353 351 352 353 355 354 354 351 350 349 349 349 352 354 355 355 356 355 355 355 356 356 356 356 357 356 355 358 355 349 356
348 357 363 365 364 362 361 361 360 359 359 357 354 351 350 352 354 354 352 350 349 349 348 348 350 350 353 354 355 355 355 355 355 355 354 354 355 356 355 357 357 353 355
351 357 358 365 364 364 361 360 360 358 357 356 354 351 350 352 354 353 351 350 348 347 348 348 348 350 351 353 353 356 355 354 354 353 353 347 349 355 355 357 357 357 355
352 357 356 365 364 363 362 362 359 357 355 354 354 352 350 351 354 352 351 349 348 347 347 347 347 349 351 352 356 354 353 353 352 351 346 346 346 353 352 354 354 354 354
352 355 359 364 363 362 362 361 359 357 355 352 351 354 351 352 354 352 350 348 347 346 346 346 348 349 350 353 354 352 351 351 349 345 344 345 345 348 352 352 351 352 355
351 354 361 363 362 362 361 359 358 356 355 352 349 350 352 353 352 352 349 347 346 344 343 344 347 348 348 348 352 350 349 348 345 340 342 346 346 352 351 351 352 352 352
349 354 358 363 362 360 359 358 357 357 354 351 348 347 351 353 352 351 348 346 345 343 341 341 344 346 346 344 346 348 347 345 337 338 341 343 345 351 352 351 350 350 350
351 354 356 361 361 360 359 358 357 355 353 350 347 347 349 352 351 350 348 345 345 342 340 339 340 344 343 349 350 346 342 339 334 334 337 343 348 350 351 351 350 349 349
352 352 353 354 356 358 358 357 357 354 351 349 346 348 353 353 351 350 347 345 343 341 340 338 337 341 341 346 344 342 340 338 328 330 337 339 348 348 349 348 347 347 347
349 350 350 351 351 351 351 356 355 354 351 348 350 353 353 352 350 349 346 343 342 340 338 337 336 338 339 340 341 339 337 335 327 328 332 338 342 343 345 345 345 345 345
346 346 348 347 348 348 348 350 353 353 351 350 352 352 348 341 343 341 344 342 340 338 336 334 335 337 336 339 340 336 333 326 326 326 330 339 338 339 339 339 339 339 340
339 343 345 345 346 346 347 345 343 345 341 340 344 341 340 338 340 340 341 341 339 336 334 333 335 336 331 322 329 331 324 322 323 325 329 338 336 337 337 335 335 335 335
335 340 342 343 345 344 344 343 340 339 336 337 341 339 336 338 339 334 332 328 327 330 324 327 326 324 319 321 321 323 323 322 321 324 332 337 335 335 335 334 333 333 333
337 340 342 343 344 343 342 341 338 335 333 336 339 337 334 333 333 330 326 323 322 319 321 320 322 322 318 320 321 320 321 320 319 322 331 336 334 333 333 333 332 331 331
334 338 341 342 341 340 341 340 335 331 334 337 336 337 333 330 329 329 326 323 320 314 313 312 314 314 313 315 319 319 318 317 318 320 323 335 334 332 332 332 331 330 330
336 331 336 341 341 340 338 331 330 334 336 338 337 334 330 327 325 326 326 320 312 307 309 312 310 308 308 314 315 318 317 317 315 316 318 325 333 332 330 330 329 329 328
333 334 336 338 341 339 336 335 336 337 338 337 339 336 327 323 321 319 318 307 306 307 309 307 305 306 307 308 307 312 315 314 314 313 313 314 318 331 330 327 327 327 327
334 333 337 340 338 335 331 339 339 338 337 336 338 330 325 321 318 314 310 307 306 306 306 306 306 305 305 304 303 307 312 312 311 311 312 312 313 315 323 328 325 325 325
335 335 335 336 332 335 334 338 337 336 336 335 336 324 323 319 317 313 310 307 306 307 306 307 305 306 303 303 304 303 303 306 309 312 309 310 311 311 311 325 324 325 323
333 334 334 330 328 332 335 337 336 335 334 337 330 323 320 316 313 310 308 306 307 307 306 306 305 305 304 303 307 305 303 303 304 305 305 308 308 306 307 310 309 315 321
333 330 332 330 331 329 330 333 332 331 332 331 324 322 318 312 309 308 306 307 308 307 307 306 305 304 303 302 302 301 302 302 302 303 304 304 306 306 305 307 306 307 311
328 330 332 330 330 329 327 326 331 331 329 329 322 319 316 310 308 308 307 307 308 307 307 307 307 304 304 302 301 299 297 300 301 302 302 305 304 305 305 306 306 305 305
323 327 327 326 327 328 326 327 329 326 326 322 316 315 313 308 310 308 308 308 308 308 308 309 309 308 304 304 305 303 298 297 298 301 300 301 302 302 302 303 302 304 304
319 324 325 324 325 325 326 328 328 325 322 319 315 313 312 309 308 307 308 309 310 310 310 311 311 310 308 305 305 307 305 304 298 297 301 302 301 303 302 301 300 301 302
319 322 324 323 324 324 322 320 326 321 317 315 312 311 310 310 311 310 309 308 308 308 308 308 308 308 308 308 307 306 304 304 301 297 295 300 300 300 301 301 299 299 299
325 327 326 324 320 320 321 321 320 318 317 315 314 312 312 311 310 311 311 310 310 309 308 308 307 306 306 306 307 307 305 303 300 298 297 297 297 299 299 300 300 300 300

GFSSE_sfc_thetae_126.txt.gz
Theta_e
344 351 364 366 364 362 361 361 360 359 356 353 351 353 356 356 354 352 350 349 348 349 351 354 355 356 356 356 356 356 357 357 356 356 355 355 357 356 354 355 356 351 356
347 353 364 366 364 363 361 361 360 359 356 354 351 352 354 355 354 351 349 349 348 348 350 352 353 353 354 355 355 355 355 356 355 354 353 354 353 356 355 357 357 354 355
351 354 359 364 365 364 362 361 360 358 356 352 351 351 352 354 352 351 349 348 348 348 348 351 353 353 354 354 355 354 354 354 354 353 351 346 347 355 354 356 356 357 355
354 354 358 365 364 363 362 361 361 358 356 353 351 351 354 354 351 350 349 348 347 347 348 350 351 352 353 353 353 352 353 353 352 350 345 342 344 353 353 354 354 354 354
352 352 358 364 364 363 362 362 361 358 356 355 351 350 354 354 351 350 348 347 347 347 347 349 351 350 352 352 352 351 351 350 349 346 345 343 343 347 350 350 351 352 353
352 352 361 364 363 363 362 361 360 357 355 355 354 350 352 354 351 349 347 346 345 346 347 347 347 348 350 350 350 350 349 348 345 341 343 347 346 351 350 348 352 352 352
351 353 359 363 362 362 362 361 359 357 354 353 355 353 353 352 351 349 347 345 343 343 346 348 347 345 348 348 347 347 346 345 337 339 341 342 344 351 352 350 349 349 348
350 354 356 359 361 361 360 358 358 356 353 351 351 352 353 352 351 348 346 345 342 340 343 346 344 347 349 346 344 344 342 339 336 337 339 341 348 349 350 349 348 349 349
351 353 353 354 355 358 358 358 356 355 353 349 347 350 353 351 350 348 346 344 342 339 339 344 345 345 346 344 343 341 339 337 327 332 336 338 348 348 348 348 348 347 347
347 350 350 351 352 349 351 356 355 355 353 350 349 353 353 351 350 348 345 344 341 339 337 342 344 342 343 342 341 339 336 334 325 328 332 337 344 345 344 344 344 345 345
331 334 348 347 347 348 348 350 354 354 352 350 350 352 349 343 342 338 342 342 340 337 335 339 341 340 340 339 337 336 332 324 325 326 330 338 339 339 339 339 338 338 339
328 329 323 346 345 345 349 346 345 345 342 343 346 340 339 339 338 338 341 342 338 335 335 339 339 337 331 327 328 329 322 322 323 325 330 338 336 337 336 336 336 335 336
327 327 322 335 344 343 345 343 342 339 339 341 338 338 337 339 338 334 332 330 324 330 323 327 326 319 319 321 321 322 321 321 321 324 333 337 335 336 335 335 334 334 334
320 321 322 340 342 342 342 340 339 337 337 339 338 335 337 335 331 326 325 323 321 320 320 320 320 319 319 319 319 318 318 319 321 323 331 336 334 334 334 334 333 332 331
320 323 331 337 336 340 340 339 337 335 336 338 336 334 335 332 329 325 322 320 318 317 318 315 314 314 317 317 318 319 317 317 318 321 324 335 334 332 332 332 332 331 330
324 332 335 332 331 341 339 337 335 334 335 337 336 333 332 332 329 325 321 318 314 313 310 312 309 314 315 317 316 318 316 315 316 318 320 326 334 332 331 330 330 330 329
327 333 336 335 339 339 338 333 333 331 335 337 336 330 330 327 328 324 321 315 311 307 310 305 305 311 312 316 312 314 315 313 313 313 314 315 320 332 331 328 328 328 327
332 330 332 333 338 337 336 332 333 334 335 337 338 330 329 325 325 322 317 310 306 306 306 305 305 306 307 311 311 312 312 312 311 311 312 312 313 314 325 330 327 326 326
332 330 330 334 337 337 334 337 335 336 335 335 336 325 326 323 321 319 310 305 305 305 305 306 304 306 305 304 308 307 309 309 309 311 309 310 313 312 313 326 328 326 324
329 331 332 332 334 333 333 335 334 335 333 331 326 323 321 320 316 312 306 305 305 305 304 304 304 303 304 303 308 305 304 306 306 307 307 309 307 308 309 310 309 316 323
325 328 326 327 328 332 332 331 330 331 332 328 322 321 320 316 313 308 305 305 306 305 304 304 303 303 302 302 302 300 301 300 301 302 303 305 304 303 307 306 307 307 312
317 327 327 326 327 326 326 326 330 330 329 327 324 322 320 317 310 307 306 305 305 305 304 305 305 303 303 303 301 299 297 299 299 301 301 303 303 304 304 306 305 306 304
314 322 326 328 327 327 327 328 328 329 327 321 319 317 317 315 308 306 306 306 305 305 305 305 306 305 305 305 304 302 296 297 299 299 299 301 301 302 303 303 305 305 302
314 323 325 325 324 324 325 324 324 323 322 316 314 317 315 311 309 307 307 306 306 306 307 307 309 307 308 304 305 306 304 304 300 299 302 299 300 302 301 301 301 303 302
317 321 321 323 322 318 320 324 324 321 315 314 313 312 311 311 311 310 308 307 307 308 308 309 309 309 308 307 306 305 304 303 302 299 297 299 299 299 300 299 299 299 300
323 322 322 322 318 318 318 321 321 315 312 311 311 310 310 310 310 311 310 309 309 308 307 307 307 307 307 306 307 307 305 303 301 300 299 298 297 299 298 298 297 297 298

GFSSE_sfc_thetae_132.txt.gz
Theta_e
335 347 364 364 361 358 361 358 354 353 355 356 356 354 352 350 348 350 352 354 355 355 356 356 357 357 357 357 357 356 356 355 355 355 355 357 356 356 356 357 356 350 356
338 348 362 363 361 359 361 359 355 353 354 356 357 356 352 350 348 348 349 350 353 354 355 356 356 356 356 356 356 356 355 354 353 353 353 354 354 356 355 356 356 354 355
341 349 357 362 363 360 361 359 355 353 353 356 357 356 352 350 348 347 349 349 352 353 354 355 355 355 355 355 355 353 352 352 351 350 350 346 349 356 354 356 356 356 355
344 352 356 360 361 362 359 358 356 352 352 355 357 355 351 349 348 348 347 349 351 352 354 354 354 354 354 354 353 352 352 351 350 347 341 341 346 354 354 354 353 353 353
346 351 356 361 360 360 358 357 356 352 352 353 356 354 351 349 348 348 348 349 351 352 353 352 352 353 353 353 352 351 351 350 349 344 339 339 343 350 353 352 351 352 352
344 349 357 360 359 361 359 357 357 353 351 351 354 353 352 348 347 347 347 347 351 351 352 352 351 351 351 351 350 351 351 349 346 341 342 346 342 348 350 350 351 352 351
347 349 355 360 359 358 357 357 356 354 352 352 355 354 351 348 347 347 346 347 349 347 351 351 351 350 350 349 349 350 349 347 339 339 340 342 344 349 347 349 348 350 350
347 351 353 356 357 357 357 356 356 355 353 352 354 353 353 348 347 346 346 346 345 346 348 349 348 347 348 348 348 347 345 342 338 339 340 342 348 349 348 347 347 347 348
349 350 344 343 349 353 356 356 355 355 354 353 354 354 352 349 346 345 344 346 347 346 348 348 347 347 348 347 346 345 343 340 331 334 339 340 347 346 348 347 346 345 345
341 335 334 333 333 335 343 353 354 355 354 354 354 352 349 351 348 345 342 345 347 347 348 347 344 345 344 345 343 340 338 335 327 330 335 338 343 343 342 341 341 342 344
337 331 331 330 332 332 335 337 352 353 354 354 353 352 347 341 342 339 340 343 346 346 346 344 343 342 341 340 339 336 332 325 328 328 332 340 339 339 339 338 337 337 337
331 332 330 330 331 332 333 332 334 344 345 341 343 342 340 338 338 338 341 343 345 344 345 343 341 339 330 323 326 328 323 323 325 326 331 339 337 338 338 337 336 336 336
330 331 330 329 331 333 332 331 330 336 339 339 339 340 336 337 337 335 334 328 330 337 329 330 322 319 318 320 320 320 322 322 323 325 334 338 337 336 336 335 334 334 333
326 328 328 326 328 329 330 329 329 336 340 340 339 338 335 334 332 329 328 321 321 326 319 318 316 317 317 318 318 318 319 320 322 324 331 337 335 335 335 334 333 332 331
319 322 321 325 326 329 330 332 334 338 340 340 338 337 335 332 329 326 320 318 318 320 318 315 315 316 316 316 317 318 317 318 320 322 325 335 335 333 333 333 332 332 331
317 319 324 326 330 332 333 331 336 339 339 337 337 336 334 332 328 324 318 316 317 317 314 315 316 316 315 316 316 317 316 317 318 320 322 327 334 333 332 332 331 330 330
310 319 324 325 332 328 334 328 329 334 337 336 336 335 333 330 326 322 318 316 314 311 311 314 313 314 314 315 313 314 315 314 315 315 317 318 323 333 332 330 329 329 329
310 319 325 328 331 330 331 328 328 332 333 335 333 334 331 329 325 320 317 315 309 308 312 315 315 312 312 313 311 312 312 312 311 312 313 314 314 317 328 331 328 328 327
311 315 323 329 329 329 328 329 330 330 333 335 332 332 331 329 325 320 316 311 308 306 312 314 311 314 312 310 311 309 309 309 309 312 310 313 313 313 316 329 330 328 326
312 317 326 328 328 328 329 329 328 330 333 333 332 329 329 328 325 319 314 308 306 306 308 311 310 307 312 311 312 305 304 305 307 307 308 310 310 310 310 310 311 318 325
314 327 328 327 327 330 327 327 324 325 330 331 331 327 325 327 325 316 312 306 305 306 308 310 307 308 303 305 303 301 301 302 303 304 304 305 306 306 307 308 308 310 313
313 325 328 329 329 330 330 328 328 328 330 325 324 321 324 325 324 315 309 305 304 303 305 307 307 302 301 303 302 300 299 301 300 303 303 303 302 301 305 305 306 307 306
313 323 326 328 331 331 331 329 326 324 323 320 319 316 316 319 316 317 309 307 304 304 305 304 306 304 302 301 302 300 295 296 299 301 301 301 302 301 301 303 304 305 304
314 324 326 326 326 328 330 328 326 324 318 316 315 315 314 315 315 312 308 303 303 303 302 304 305 304 306 303 302 303 301 302 299 298 301 301 302 303 302 303 304 304 304
320 321 321 322 323 324 326 326 324 320 319 319 314 312 313 313 313 311 309 305 302 302 302 303 303 303 303 302 303 303 303 302 301 300 298 299 300 299 302 303 301 301 302
320 319 319 318 319 321 322 322 320 317 314 313 313 312 311 310 310 311 310 308 306 305 303 303 304 305 306 307 306 306 304 302 301 300 298 299 300 301 300 299 298 297 299

GFSSE_sfc_thetae_135.txt.gz
Theta_e
343 351 361 361 359 360 357 355 354 353 351 354 352 351 349 349 352 355 356 357 357 357 358 357 358 358 358 358 357 356 356 355 355 356 355 356 357 357 356 358 355 352 358
345 353 362 362 359 360 359 355 355 356 357 357 355 351 350 349 351 352 354 355 356 356 357 357 357 357 357 356 355 355 355 354 354 354 355 355 355 356 355 357 356 354 357
344 353 359 361 361 360 358 357 355 355 357 357 356 352 350 349 349 350 351 354 355 355 356 356 356 356 355 355 354 353 353 352 352 351 354 351 353 357 355 356 356 356 355
345 353 358 362 362 361 357 357 356 354 357 358 356 352 350 349 348 350 350 353 353 355 355 355 355 355 355 354 353 352 351 350 349 351 349 348 349 354 354 355 354 351 353
347 354 358 361 361 362 358 356 356 355 356 357 356 352 350 349 348 348 352 352 354 354 353 353 353 353 354 352 352 350 350 350 348 346 347 349 349 351 353 352 352 352 353
349 356 360 360 358 359 358 356 357 355 354 357 357 352 349 348 348 348 350 352 353 353 352 352 352 352 352 351 351 351 351 349 349 347 345 346 347 351 351 351 352 352 352
349 355 357 358 358 357 357 356 356 355 355 355 356 355 349 347 347 347 348 351 351 351 351 351 351 352 351 351 351 351 350 348 347 347 347 345 345 350 349 349 349 349 349
348 354 357 358 359 357 357 357 356 355 355 356 355 354 351 347 347 346 348 348 348 351 350 349 350 350 350 349 349 348 346 347 346 346 345 346 349 348 348 347 347 346 348
350 352 350 354 355 356 358 356 356 356 354 355 356 355 353 347 346 346 347 347 348 349 348 348 348 348 349 348 348 346 344 344 343 343 341 342 347 346 347 347 346 345 345
347 345 340 342 344 348 352 354 355 356 355 355 354 354 351 349 346 347 348 348 347 348 347 346 347 346 346 345 345 343 340 341 339 340 340 339 343 342 342 341 341 342 343
339 339 339 338 336 338 340 343 351 353 355 354 353 351 349 347 343 343 346 349 348 347 346 346 345 344 343 341 340 337 338 336 336 336 334 338 339 339 339 338 337 337 337
336 336 338 339 338 337 335 334 335 336 340 347 349 347 346 345 342 338 344 348 348 346 345 344 343 339 337 336 335 335 334 334 334 333 334 340 338 338 338 337 336 336 336
338 339 335 338 339 339 340 337 332 336 335 340 344 344 345 343 341 338 339 345 344 345 341 339 334 332 332 332 332 333 333 332 333 333 335 339 337 337 336 335 334 334 334
329 336 340 338 335 336 338 336 334 330 339 339 341 343 341 341 339 337 335 339 339 339 335 331 329 330 330 331 331 331 331 332 332 332 334 337 336 335 335 334 333 332 332
322 329 336 338 333 332 331 333 333 333 334 338 339 340 340 340 337 333 329 333 334 335 331 327 327 328 328 329 330 330 330 331 331 331 331 336 336 334 334 333 333 332 331
315 319 328 331 331 333 334 336 337 337 336 337 337 340 340 341 336 331 327 330 330 332 327 326 326 326 327 328 328 329 329 330 330 330 330 332 335 334 332 332 331 331 330
315 317 322 328 331 335 337 336 336 329 339 336 337 339 338 337 335 329 326 327 327 329 325 325 325 326 326 326 326 327 328 328 328 328 329 330 330 333 333 330 330 330 329
315 315 322 328 331 333 333 333 335 330 331 336 337 336 336 335 333 327 324 325 322 322 324 324 324 324 324 324 324 324 324 324 325 325 325 326 327 327 331 332 329 329 328
315 316 319 327 330 332 332 331 334 333 330 334 335 335 333 332 330 325 323 321 318 320 323 323 323 323 322 322 321 321 321 321 321 321 322 324 325 326 327 330 331 329 327
316 317 319 326 330 333 332 332 331 332 332 335 333 334 331 332 328 324 321 316 315 319 321 322 321 323 322 321 318 316 317 317 319 320 320 319 320 322 323 324 325 325 326
317 319 327 325 330 331 329 327 326 325 330 333 331 331 331 331 327 321 319 314 315 318 320 322 320 319 317 317 315 314 313 315 316 317 318 318 318 318 320 321 322 323 321
316 321 328 327 330 332 331 330 329 328 328 327 327 328 329 329 322 319 315 312 312 316 319 318 319 318 315 318 315 313 310 312 314 314 315 314 313 314 316 317 319 320 320
317 323 327 328 329 332 331 330 326 325 323 320 319 318 322 326 325 316 314 311 313 316 317 318 319 318 314 313 315 312 307 306 310 311 311 311 312 309 310 311 312 316 316
322 325 327 326 330 332 333 330 326 325 320 319 318 316 318 319 318 317 309 310 308 313 316 317 318 318 318 313 311 310 310 310 307 303 306 306 311 308 308 311 312 313 312
320 321 323 324 325 327 330 328 328 323 320 320 318 316 317 317 316 314 309 307 307 311 314 316 317 316 318 316 314 309 308 307 308 305 301 302 303 305 306 309 311 310 312
320 319 319 321 322 323 324 325 323 321 318 316 315 316 315 314 314 313 312 310 308 310 311 313 315 314 315 315 313 310 309 308 307 307 304 302 303 304 303 303 301 303 306

GFSSE_sfc_thetae_138.txt.gz
Theta_e
347 356 362 362 360 357 355 354 354 353 353 352 351 351 352 353 357 357 357 357 358 358 358 358 358 359 358 357 356 355 356 356 356 355 356 357 357 356 356 358 355 353 356
347 357 362 362 361 358 357 355 354 351 351 353 351 349 349 352 355 356 356 356 356 357 356 357 357 357 357 356 356 355 355 355 355 356 357 355 354 356 354 357 356 353 355
346 357 359 362 363 360 357 358 356 355 355 355 352 350 349 351 352 354 355 356 356 356 356 356 356 356 355 354 354 353 353 352 353 356 354 351 353 356 353 355 355 355 353
346 356 358 362 363 360 360 359 359 358 358 356 354 351 349 349 351 352 354 355 355 356 356 356 355 355 354 354 352 351 351 351 354 355 347 347 350 354 354 353 353 353 353
346 356 357 361 362 361 358 359 356 357 358 357 356 351 350 349 350 351 352 354 354 355 355 355 354 354 353 351 350 350 349 349 352 347 347 349 350 351 353 353 352 352 354
347 354 359 359 360 359 357 357 357 357 358 356 356 351 349 349 349 352 353 353 354 353 353 353 353 352 351 350 351 351 350 352 350 345 345 349 350 351 352 351 351 352 353
345 351 359 358 359 359 357 357 356 357 358 357 356 354 351 349 349 352 353 352 352 352 352 352 352 352 352 351 352 350 349 352 346 345 344 344 347 349 350 350 349 350 350
344 350 355 358 358 359 357 357 357 355 357 356 357 353 351 349 348 350 351 352 351 350 351 351 350 351 351 350 350 349 350 349 343 343 346 347 349 348 348 348 347 347 348
345 348 355 357 355 357 358 357 358 356 356 356 355 354 351 348 348 349 349 350 351 350 349 350 349 350 350 349 348 347 347 348 342 340 340 342 346 346 347 345 345 345 345
346 349 353 353 351 354 354 354 355 354 356 356 353 352 351 347 349 349 350 350 350 349 349 348 349 349 348 347 345 344 345 345 340 339 338 338 342 341 342 341 340 340 341
347 348 353 352 352 351 354 354 354 352 352 354 352 351 349 344 344 345 348 350 349 347 348 347 346 346 344 343 341 340 345 339 336 335 335 338 340 340 339 338 337 337 338
340 345 347 350 350 350 345 349 348 348 344 344 349 348 348 343 343 341 347 349 348 347 346 346 345 343 344 340 338 339 338 336 334 334 335 340 339 338 338 336 336 336 336
342 343 345 347 349 348 344 344 342 336 334 339 343 347 347 348 340 339 345 346 345 345 342 342 340 336 336 337 337 337 334 332 333 333 336 339 337 336 336 335 334 334 334
328 339 345 345 345 347 346 343 342 341 334 334 340 340 343 344 337 335 339 340 340 341 338 336 334 333 333 333 333 333 331 331 331 332 334 337 336 335 335 334 333 333 332
320 328 336 343 343 342 340 340 341 341 340 338 331 331 338 342 339 335 337 340 338 338 336 331 331 331 330 331 331 329 329 330 331 331 332 336 337 334 334 333 333 332 331
320 322 325 331 342 343 340 339 338 338 338 340 336 335 338 341 340 336 335 337 338 336 331 329 326 327 328 328 327 328 329 330 330 330 330 333 335 335 333 332 332 331 331
320 321 323 326 335 339 339 338 339 341 342 337 337 339 341 343 339 335 333 334 335 335 330 328 326 327 327 327 327 328 328 328 328 329 329 329 331 333 333 331 330 330 330
320 320 322 324 330 336 338 338 337 340 341 340 338 340 341 341 339 333 331 332 334 332 329 327 325 325 326 326 325 326 326 327 327 327 328 328 327 327 331 332 329 329 328
320 321 321 324 330 335 336 337 337 337 338 338 338 339 339 338 336 333 330 333 331 330 328 327 325 324 323 324 324 324 325 324 324 324 324 326 327 327 326 329 330 329 327
320 321 322 323 331 334 334 335 335 335 336 338 335 337 334 334 334 331 328 329 329 328 327 327 324 324 323 323 321 321 323 323 323 321 322 322 325 325 324 324 325 325 325
319 321 322 325 330 333 331 331 330 332 333 332 333 334 334 331 331 329 328 327 328 327 327 327 325 322 322 322 320 319 319 320 320 320 321 320 321 321 322 323 323 323 321
319 322 326 329 330 331 332 332 333 332 334 335 332 332 334 330 328 325 325 325 325 326 326 325 324 322 322 321 316 315 311 314 317 317 318 317 317 318 319 320 321 321 321
321 324 327 328 329 331 332 334 333 328 324 322 325 328 332 327 323 324 322 319 321 325 325 325 325 323 319 320 320 316 310 308 312 316 315 316 316 315 316 317 317 318 320
323 327 330 329 329 334 333 333 329 325 320 320 318 320 324 326 321 322 322 322 320 324 325 325 326 324 322 317 318 316 317 316 309 308 314 315 315 314 314 314 315 316 317
321 323 327 330 329 333 334 333 330 323 320 319 318 318 320 320 320 316 316 318 319 322 324 325 325 325 323 320 318 315 314 314 314 311 308 310 313 313 309 313 316 314 316
321 322 325 325 324 328 329 330 327 322 319 318 318 317 319 320 318 313 313 311 313 315 321 323 324 325 324 322 320 318 314 312 310 310 309 309 309 306 307 307 307 305 308